sat.trackr.live / text

‹ back to catalog

CONNECTA IOT-15

NORAD 67402 · 2026-004AR

PAYLOAD ACTIVE UNKNOWN

§ Identity

Operator
Country
TURK
Launch date
2026-01-11
Launch site
AFWTR
Launch vehicle
Mass (kg)
RCS (m²)

External: N2YO · Heavens-Above · Gunter

§ Orbital elements

Epoch: 2026-09-20T12:26:54.413376Z

Period
94.83 min
Inclination
97.4635°
Eccentricity
0.0003803
Mean motion
15.18510063 rev/d
Perigee alt
507.7 km
Apogee alt
513.0 km
Semi-major
6,888.5 km
B*
2.4791e-4
RAAN
261.0336°
Arg perigee
34.0900°
Mean anomaly
326.0578°
Rev number
3,819

§ Raw data

CONNECTA IOT-151 67402U 26004AR  26263.51868534  .00005048  00000+0  24791-3 0  99922 67402  97.4635 261.0336 0003803  34.0900 326.0578 15.18510063 38198

JSON: /api/v1/satellites/67402 · /tle

For live sub-satellite position, see the globe view (requires WebGL).

§ Visibility from observer

Set your observer location to see the next 7 days of passes ≥ 10°. The values pass through the URL so the page stays shareable.

No JS? Fill the form by hand. The geolocation button needs JavaScript.